User: anonymous   Login
Location: Fort Wayne
(41.1310°N, 85.1290°W)
Time: 22:10:23
(UTC-04:00)
Language:

Meteor 2-10 Rocket - Orbit

View from above orbital plane
View from above orbital plane
View from above satellite
View from above satellite

Ground track
Ground track

The orbit data is extracted from the following two-line orbital elements,

1 14453U 83109B   17234.54500605 +.00000027 +00000-0 +60421-5 0  9997
2 14453 081.1659 039.5433 0104250 231.3559 127.8255 14.24678046756905
Epoch (UTC): 22 August 2017 13:04:48
Eccentricity: 0.0104250
inclination: 81.1659°
perigee height: 734 km
apogee height: 884 km
right ascension of ascending node: 39.5433°
argument of perigee: 231.3559°
revolutions per day: 14.24678046
mean anomaly at epoch: 127.8255°
orbit number at epoch: 75690

The dashed part of the orbit path shows where the satellite is in the earth's shadow,  

DLR